| time (UTC) | temp C | wind direction | speed KPH | gust KPH | rain 1hr cm | rain 24hr cm | rain mn cm | humidity % | barometer mb |
| 20260510174042 | 10 | 339 | 14.5 | 30.6 | 0.00 | 0.00 | 0.00 | 51 | 1022.5 |
| 20260510173542 | 10 | 337 | 9.7 | 32.2 | 0.00 | 0.00 | 0.00 | 50 | 1022.5 |
| 20260510173048 | 10 | 306 | 17.7 | 32.2 | 0.00 | 0.00 | 0.00 | 50 | 1022.5 |
| 20260510172546 | 10 | 340 | 12.9 | 27.4 | 0.00 | 0.00 | 0.00 | 49 | 1022.4 |
| 20260510172042 | 10 | 338 | 14.5 | 27.4 | 0.00 | 0.00 | 0.00 | 50 | 1022.5 |
| 20260510171543 | 10 | 355 | 11.3 | 27.4 | 0.00 | 0.00 | 0.00 | 50 | 1022.5 |
| 20260510171040 | 10 | 322 | 12.9 | 24.1 | 0.00 | 0.00 | 0.00 | 49 | 1022.5 |
| 20260510170538 | 10 | 280 | 6.4 | 32.2 | 0.00 | 0.00 | 0.00 | 50 | 1022.5 |
| 20260510170038 | 10 | 331 | 16.1 | 32.2 | 0.00 | 0.00 | 0.00 | 50 | 1022.5 |
| 20260510165538 | 10 | 5 | 16.1 | 29.0 | 0.00 | 0.00 | 0.00 | 49 | 1022.5 |
| 20260510165036 | 10 | 288 | 16.1 | 29.0 | 0.00 | 0.00 | 0.00 | 50 | 1022.6 |
| 20260510164544 | 10 | 16 | 9.7 | 24.1 | 0.00 | 0.00 | 0.00 | 51 | 1022.6 |
| 20260510164035 | 9 | 311 | 12.9 | 25.7 | 0.00 | 0.00 | 0.00 | 51 | 1022.6 |
| 20260510163534 | 9 | 350 | 14.5 | 25.7 | 0.00 | 0.00 | 0.00 | 52 | 1022.8 |
| 20260510163041 | 9 | 355 | 12.9 | 27.4 | 0.00 | 0.00 | 0.00 | 51 | 1022.7 |
| 20260510162532 | 9 | 331 | 12.9 | 29.0 | 0.00 | 0.00 | 0.00 | 52 | 1022.6 |
| 20260510162031 | 9 | 327 | 16.1 | 29.0 | 0.00 | 0.00 | 0.00 | 50 | 1022.6 |
| 20260510161534 | 8 | 355 | 12.9 | 27.4 | 0.00 | 0.00 | 0.00 | 52 | 1022.5 |
| 20260510161028 | 8 | 355 | 12.9 | 29.0 | 0.00 | 0.00 | 0.00 | 50 | 1022.6 |
| 20260510160527 | 8 | 324 | 12.9 | 29.0 | 0.00 | 0.00 | 0.00 | 51 | 1022.6 |
| 20260510160026 | 8 | 316 | 16.1 | 27.4 | 0.00 | 0.00 | 0.00 | 53 | 1022.6 |
| 20260510155524 | 8 | 5 | 12.9 | 25.7 | 0.00 | 0.00 | 0.00 | 52 | 1022.5 |
| 20260510155024 | 8 | 336 | 4.8 | 22.5 | 0.00 | 0.00 | 0.00 | 52 | 1022.5 |
| 20260510154522 | 8 | 13 | 8.0 | 22.5 | 0.00 | 0.00 | 0.00 | 53 | 1022.6 |
| 20260510154021 | 8 | 250 | 12.9 | 22.5 | 0.00 | 0.00 | 0.00 | 52 | 1022.6 |
| 20260510153518 | 8 | 338 | 12.9 | 24.1 | 0.00 | 0.00 | 0.00 | 51 | 1022.5 |
| 20260510153018 | 8 | 360 | 9.7 | 20.9 | 0.00 | 0.00 | 0.00 | 52 | 1022.5 |
| 20260510152516 | 8 | 300 | 8.0 | 24.1 | 0.00 | 0.00 | 0.00 | 52 | 1022.4 |
| 20260510152014 | 7 | 338 | 6.4 | 24.1 | 0.00 | 0.00 | 0.00 | 54 | 1022.3 |
| 20260510151513 | 7 | 360 | 12.9 | 22.5 | 0.00 | 0.00 | 0.00 | 53 | 1022.4 |
| 20260510151012 | 7 | 284 | 14.5 | 24.1 | 0.00 | 0.00 | 0.00 | 53 | 1022.5 |
| 20260510150514 | 7 | 17 | 11.3 | 27.4 | 0.00 | 0.00 | 0.00 | 53 | 1022.4 |
| 20260510150012 | 7 | 312 | 14.5 | 27.4 | 0.00 | 0.00 | 0.00 | 53 | 1022.5 |
| 20260510145511 | 7 | 355 | 9.7 | 19.3 | 0.00 | 0.00 | 0.00 | 54 | 1022.4 |
| 20260510145013 | 7 | 28 | 8.0 | 22.5 | 0.00 | 0.00 | 0.00 | 53 | 1022.4 |
| 20260510144513 | 7 | 5 | 11.3 | 22.5 | 0.00 | 0.00 | 0.00 | 53 | 1022.4 |
| 20260510144009 | 7 | 333 | 8.0 | 24.1 | 0.00 | 0.00 | 0.00 | 53 | 1022.3 |
| 20260510143511 | 7 | 319 | 8.0 | 22.5 | 0.00 | 0.00 | 0.00 | 54 | 1022.3 |
| 20260510143013 | 6 | 340 | 9.7 | 22.5 | 0.00 | 0.00 | 0.00 | 56 | 1022.3 |
| 20260510142505 | 6 | 12 | 8.0 | 22.5 | 0.00 | 0.00 | 0.00 | 56 | 1022.2 |
| 20260510142004 | 6 | 11 | 11.3 | 22.5 | 0.00 | 0.00 | 0.00 | 56 | 1022.3 |
| 20260510141503 | 6 | 5 | 9.7 | 22.5 | 0.00 | 0.00 | 0.00 | 56 | 1022.2 |
| 20260510141002 | 6 | 360 | 12.9 | 22.5 | 0.00 | 0.00 | 0.00 | 56 | 1022.1 |
| 20260510140503 | 6 | 29 | 14.5 | 24.1 | 0.00 | 0.00 | 0.00 | 55 | 1022.1 |
| 20260510140001 | 5 | 46 | 11.3 | 24.1 | 0.00 | 0.00 | 0.00 | 55 | 1022.1 |
| 20260510135501 | 5 | 351 | 12.9 | 22.5 | 0.00 | 0.00 | 0.00 | 57 | 1022.2 |
| 20260510135100 | 5 | 13 | 11.3 | 20.9 | 0.00 | 0.00 | 0.00 | 56 | 1022.1 |
| 20260510134559 | 5 | 360 | 8.0 | 22.5 | 0.00 | 0.00 | 0.00 | 58 | 1022.0 |
| 20260510134059 | 5 | 33 | 14.5 | 20.9 | 0.00 | 0.00 | 0.00 | 58 | 1022.0 |
| 20260510133557 | 5 | 28 | 6.4 | 22.5 | 0.00 | 0.00 | 0.00 | 60 | 1021.9 |
| 20260510133056 | 5 | 13 | 11.3 | 22.5 | 0.00 | 0.00 | 0.00 | 60 | 1021.8 |
| 20260510132556 | 5 | 26 | 11.3 | 24.1 | 0.00 | 0.00 | 0.00 | 60 | 1021.8 |
| 20260510132058 | 5 | 31 | 12.9 | 24.1 | 0.00 | 0.00 | 0.00 | 59 | 1021.7 |
| 20260510131557 | 5 | 331 | 8.0 | 22.5 | 0.00 | 0.00 | 0.00 | 61 | 1021.7 |
| 20260510131053 | 4 | 355 | 11.3 | 22.5 | 0.00 | 0.00 | 0.00 | 62 | 1021.7 |
| 20260510130556 | 4 | 19 | 12.9 | 22.5 | 0.00 | 0.00 | 0.00 | 64 | 1021.6 |
| 20260510130051 | 4 | 355 | 9.7 | 20.9 | 0.00 | 0.00 | 0.00 | 65 | 1021.5 |
| 20260510125550 | 4 | 346 | 9.7 | 20.9 | 0.00 | 0.00 | 0.00 | 65 | 1021.5 |
| 20260510125048 | 4 | 21 | 11.3 | 22.5 | 0.00 | 0.00 | 0.00 | 65 | 1021.4 |
| 20260510124557 | 4 | 346 | 11.3 | 22.5 | 0.00 | 0.00 | 0.00 | 64 | 1021.3 |
| 20260510124050 | 4 | 336 | 11.3 | 24.1 | 0.00 | 0.00 | 0.00 | 64 | 1021.3 |
| 20260510123546 | 4 | 360 | 8.0 | 24.1 | 0.00 | 0.00 | 0.00 | 65 | 1021.1 |
| 20260510123045 | 4 | 347 | 11.3 | 20.9 | 0.00 | 0.00 | 0.00 | 65 | 1021.1 |
| 20260510122545 | 4 | 309 | 6.4 | 20.9 | 0.00 | 0.00 | 0.00 | 66 | 1020.9 |
| 20260510122043 | 4 | 339 | 8.0 | 20.9 | 0.00 | 0.00 | 0.00 | 67 | 1020.9 |
| 20260510121543 | 4 | 19 | 14.5 | 22.5 | 0.00 | 0.00 | 0.00 | 66 | 1020.8 |
| 20260510121043 | 4 | 24 | 9.7 | 22.5 | 0.00 | 0.00 | 0.00 | 67 | 1020.8 |
| 20260510120540 | 4 | 347 | 8.0 | 16.1 | 0.00 | 0.00 | 0.00 | 66 | 1020.7 |
| 20260510120039 | 4 | 24 | 6.4 | 19.3 | 0.00 | 0.00 | 0.00 | 66 | 1020.6 |
| 20260510115538 | 4 | 333 | 9.7 | 17.7 | 0.00 | 0.00 | 0.00 | 65 | 1020.5 |
| 20260510115037 | 5 | 5 | 8.0 | 16.1 | 0.00 | 0.00 | 0.00 | 65 | 1020.4 |
| 20260510114543 | 5 | 9 | 6.4 | 16.1 | 0.00 | 0.00 | 0.00 | 63 | 1020.2 |
| 20260510114036 | 5 | 22 | 6.4 | 16.1 | 0.00 | 0.00 | 0.00 | 63 | 1020.3 |
| 20260510113534 | 5 | 355 | 6.4 | 17.7 | 0.00 | 0.00 | 0.00 | 63 | 1020.2 |
| 20260510113033 | 5 | 346 | 4.8 | 17.7 | 0.00 | 0.00 | 0.00 | 63 | 1020.1 |
| 20260510112533 | 5 | 327 | 6.4 | 14.5 | 0.00 | 0.00 | 0.00 | 64 | 1019.9 |
| 20260510112031 | 5 | 5 | 4.8 | 14.5 | 0.00 | 0.00 | 0.00 | 64 | 1019.9 |
| 20260510111533 | 5 | 10 | 6.4 | 14.5 | 0.00 | 0.00 | 0.00 | 65 | 1019.9 |
| 20260510111029 | 5 | 5 | 6.4 | 14.5 | 0.00 | 0.00 | 0.00 | 65 | 1019.9 |
| 20260510110528 | 5 | 27 | 8.0 | 17.7 | 0.00 | 0.00 | 0.00 | 65 | 1019.8 |
| 20260510110029 | 5 | 360 | 6.4 | 17.7 | 0.00 | 0.00 | 0.00 | 65 | 1019.8 |
| 20260510105526 | 5 | 32 | 8.0 | 17.7 | 0.00 | 0.00 | 0.00 | 65 | 1019.6 |
| 20260510105026 | 5 | 38 | 9.7 | 19.3 | 0.00 | 0.00 | 0.00 | 66 | 1019.5 |
| 20260510104528 | 5 | 360 | 9.7 | 19.3 | 0.00 | 0.00 | 0.00 | 66 | 1019.4 |
| 20260510104026 | 5 | 5 | 9.7 | 20.9 | 0.00 | 0.00 | 0.00 | 66 | 1019.3 |
| 20260510103522 | 5 | 350 | 11.3 | 22.5 | 0.00 | 0.00 | 0.00 | 66 | 1019.2 |
| 20260510103026 | 5 | 31 | 8.0 | 22.5 | 0.00 | 0.00 | 0.00 | 66 | 1019.2 |
| 20260510102521 | 5 | 28 | 6.4 | 24.1 | 0.00 | 0.00 | 0.00 | 65 | 1019.1 |
| 20260510102019 | 5 | 13 | 11.3 | 22.5 | 0.00 | 0.00 | 0.00 | 64 | 1019.1 |
| 20260510101518 | 5 | 26 | 9.7 | 22.5 | 0.00 | 0.00 | 0.00 | 64 | 1019.0 |
| 20260510101017 | 5 | 22 | 12.9 | 22.5 | 0.00 | 0.00 | 0.00 | 65 | 1018.9 |
| 20260510100520 | 5 | 34 | 9.7 | 20.9 | 0.00 | 0.00 | 0.00 | 66 | 1018.8 |
| 20260510100028 | 5 | 16 | 9.7 | 20.9 | 0.00 | 0.00 | 0.00 | 67 | 1018.7 |
| 20260510095515 | 6 | 26 | 9.7 | 22.5 | 0.00 | 0.00 | 0.00 | 67 | 1018.7 |
| 20260510095015 | 6 | 355 | 9.7 | 22.5 | 0.00 | 0.00 | 0.00 | 66 | 1018.6 |
| 20260510094516 | 6 | 25 | 9.7 | 20.9 | 0.00 | 0.00 | 0.00 | 65 | 1018.6 |
| 20260510094011 | 6 | 9 | 9.7 | 22.5 | 0.00 | 0.00 | 0.00 | 63 | 1018.5 |
| 20260510093510 | 6 | 347 | 11.3 | 22.5 | 0.00 | 0.00 | 0.00 | 62 | 1018.3 |
| 20260510093009 | 6 | 29 | 12.9 | 24.1 | 0.00 | 0.00 | 0.00 | 62 | 1018.2 |
| 20260510092508 | 6 | 355 | 9.7 | 20.9 | 0.00 | 0.00 | 0.00 | 60 | 1018.2 |
| 20260510092009 | 6 | 355 | 8.0 | 20.9 | 0.00 | 0.00 | 0.00 | 60 | 1018.1 |
| 20260510091505 | 6 | 9 | 6.4 | 25.7 | 0.00 | 0.00 | 0.00 | 58 | 1017.9 |
| 20260510091107 | 7 | 13 | 8.0 | 25.7 | 0.00 | 0.00 | 0.00 | 58 | 1017.9 |
| 20260510090503 | 7 | 36 | 11.3 | 24.1 | 0.00 | 0.00 | 0.00 | 57 | 1017.8 |
| 20260510090004 | 7 | 43 | 8.0 | 19.3 | 0.00 | 0.00 | 0.00 | 58 | 1017.7 |
| 20260510085600 | 7 | 11 | 11.3 | 22.5 | 0.00 | 0.00 | 0.00 | 58 | 1017.6 |
| 20260510085101 | 7 | 344 | 9.7 | 22.5 | 0.00 | 0.00 | 0.00 | 59 | 1017.5 |
| 20260510084612 | 7 | 348 | 8.0 | 16.1 | 0.00 | 0.00 | 0.00 | 59 | 1017.5 |
| 20260510084059 | 7 | 327 | 4.8 | 14.5 | 0.00 | 0.00 | 0.00 | 59 | 1017.5 |
| 20260510083556 | 7 | 355 | 6.4 | 14.5 | 0.00 | 0.00 | 0.00 | 59 | 1017.3 |
| 20260510083057 | 7 | 5 | 4.8 | 9.7 | 0.00 | 0.00 | 0.00 | 59 | 1017.3 |
| 20260510082556 | 7 | 5 | 4.8 | 12.9 | 0.00 | 0.00 | 0.00 | 59 | 1017.2 |
| 20260510082055 | 7 | 355 | 4.8 | 12.9 | 0.00 | 0.00 | 0.00 | 59 | 1017.2 |
| 20260510081557 | 7 | 5 | 6.4 | 12.9 | 0.00 | 0.00 | 0.00 | 59 | 1017.2 |
| 20260510081055 | 7 | 5 | 6.4 | 12.9 | 0.00 | 0.00 | 0.00 | 59 | 1017.1 |
| 20260510080557 | 7 | 340 | 6.4 | 12.9 | 0.00 | 0.00 | 0.00 | 59 | 1017.1 |
| 20260510080059 | 7 | 17 | 4.8 | 12.9 | 0.00 | 0.00 | 0.00 | 59 | 1017.0 |
| 20260510075553 | 7 | 347 | 4.8 | 12.9 | 0.00 | 0.00 | 0.00 | 59 | 1017.0 |
| 20260510075052 | 7 | 14 | 4.8 | 12.9 | 0.00 | 0.00 | 0.00 | 59 | 1017.0 |
| 20260510074553 | 7 | 350 | 6.4 | 12.9 | 0.00 | 0.00 | 0.00 | 59 | 1017.0 |
| 20260510074052 | 7 | 12 | 4.8 | 9.7 | 0.00 | 0.00 | 0.00 | 59 | 1017.0 |
| 20260510073551 | 7 | 21 | 3.2 | 8.0 | 0.00 | 0.00 | 0.00 | 59 | 1016.9 |
| 20260510073103 | 7 | 355 | 3.2 | 8.0 | 0.00 | 0.00 | 0.00 | 59 | 1016.8 |
| 20260510072551 | 7 | 5 | 3.2 | 8.0 | 0.00 | 0.00 | 0.00 | 59 | 1016.8 |
| 20260510072052 | 7 | 355 | 3.2 | 9.7 | 0.00 | 0.00 | 0.00 | 59 | 1016.8 |
| 20260510071552 | 7 | 26 | 4.8 | 9.7 | 0.00 | 0.00 | 0.00 | 59 | 1016.7 |
| 20260510071049 | 7 | 40 | 4.8 | 8.0 | 0.00 | 0.00 | 0.00 | 59 | 1016.6 |
| 20260510070547 | 7 | 15 | 3.2 | 9.7 | 0.00 | 0.00 | 0.00 | 58 | 1016.6 |
| 20260510070053 | 7 | 14 | 3.2 | 14.5 | 0.00 | 0.00 | 0.00 | 58 | 1016.6 |
| 20260510065547 | 7 | 24 | 4.8 | 14.5 | 0.00 | 0.00 | 0.00 | 58 | 1016.6 |
| 20260510065046 | 7 | 36 | 6.4 | 14.5 | 0.00 | 0.00 | 0.00 | 57 | 1016.5 |
| 20260510064550 | 7 | 26 | 6.4 | 14.5 | 0.00 | 0.00 | 0.00 | 57 | 1016.5 |
| 20260510064043 | 7 | 360 | 4.8 | 14.5 | 0.00 | 0.00 | 0.00 | 56 | 1016.4 |
| 20260510063542 | 8 | 19 | 3.2 | 12.9 | 0.00 | 0.00 | 0.00 | 55 | 1016.3 |
| 20260510063047 | 8 | 11 | 4.8 | 14.5 | 0.00 | 0.00 | 0.00 | 55 | 1016.3 |
| 20260510062540 | 8 | 38 | 8.0 | 14.5 | 0.00 | 0.00 | 0.00 | 54 | 1016.3 |
| 20260510062039 | 8 | 348 | 4.8 | 9.7 | 0.00 | 0.00 | 0.00 | 54 | 1016.2 |
| 20260510061538 | 8 | 360 | 3.2 | 9.7 | 0.00 | 0.00 | 0.00 | 53 | 1016.2 |
| 20260510061040 | 8 | 5 | 4.8 | 9.7 | 0.00 | 0.00 | 0.00 | 53 | 1016.1 |
| 20260510060537 | 8 | 355 | 4.8 | 9.7 | 0.00 | 0.00 | 0.00 | 53 | 1016.1 |
| 20260510060036 | 8 | 345 | 3.2 | 9.7 | 0.00 | 0.00 | 0.00 | 53 | 1016.0 |
| 20260510055535 | 8 | 5 | 4.8 | 9.7 | 0.00 | 0.00 | 0.00 | 53 | 1015.8 |
| 20260510055035 | 8 | 20 | 3.2 | 9.7 | 0.00 | 0.00 | 0.00 | 53 | 1015.8 |
| 20260510054535 | 8 | 355 | 4.8 | 8.0 | 0.00 | 0.00 | 0.00 | 53 | 1015.8 |
| 20260510054031 | 8 | 5 | 1.6 | 4.8 | 0.00 | 0.00 | 0.00 | 53 | 1015.7 |
| 20260510053530 | 8 | 5 | 1.6 | 4.8 | 0.00 | 0.00 | 0.00 | 53 | 1015.4 |
| 20260510053030 | 8 | 5 | 1.6 | 4.8 | 0.00 | 0.00 | 0.00 | 53 | 1015.4 |
| 20260510052529 | 8 | 5 | 1.6 | 6.4 | 0.00 | 0.00 | 0.00 | 53 | 1015.3 |
| 20260510052029 | 8 | 5 | 1.6 | 6.4 | 0.00 | 0.00 | 0.00 | 54 | 1015.3 |
| 20260510051528 | 8 | 360 | 3.2 | 4.8 | 0.00 | 0.00 | 0.00 | 54 | 1015.2 |
| 20260510051028 | 8 | 21 | 1.6 | 4.8 | 0.00 | 0.00 | 0.00 | 54 | 1015.1 |
| 20260510050526 | 8 | 355 | 1.6 | 4.8 | 0.00 | 0.00 | 0.00 | 55 | 1015.1 |
| 20260510050024 | 8 | 355 | 0.0 | 0.0 | 0.00 | 0.00 | 0.00 | 55 | 1015.1 |
| 20260510045524 | 8 | 344 | 0.0 | 0.0 | 0.00 | 0.00 | 0.43 | 55 | 1015.1 |
| 20260510045024 | 8 | 344 | 0.0 | 0.0 | 0.00 | 0.00 | 0.43 | 55 | 1015.0 |
| 20260510044531 | 8 | 344 | 0.0 | 0.0 | 0.00 | 0.00 | 0.43 | 55 | 1014.9 |
| 20260510044023 | 8 | 344 | 0.0 | 0.0 | 0.00 | 0.00 | 0.43 | 56 | 1014.8 |
| 20260510043523 | 8 | 344 | 0.0 | 0.0 | 0.00 | 0.00 | 0.43 | 56 | 1014.9 |
| 20260510043024 | 8 | 342 | 0.0 | 0.0 | 0.00 | 0.00 | 0.43 | 56 | 1014.9 |
| 20260510042524 | 8 | 341 | 0.0 | 0.0 | 0.00 | 0.00 | 0.43 | 55 | 1015.0 |
| 20260510042022 | 8 | 341 | 0.0 | 0.0 | 0.00 | 0.00 | 0.43 | 55 | 1014.9 |
| 20260510041522 | 8 | 341 | 0.0 | 0.0 | 0.00 | 0.00 | 0.43 | 54 | 1014.9 |
| 20260510041021 | 8 | 341 | 0.0 | 0.0 | 0.00 | 0.00 | 0.43 | 53 | 1014.9 |
| 20260510040521 | 8 | 341 | 0.0 | 0.0 | 0.00 | 0.00 | 0.43 | 53 | 1014.8 |
| 20260510040021 | 8 | 341 | 0.0 | 0.0 | 0.00 | 0.00 | 0.43 | 52 | 1014.7 |
| 20260510035520 | 8 | 341 | 0.0 | 0.0 | 0.00 | 0.00 | 0.43 | 52 | 1014.7 |
| 20260510035021 | 9 | 341 | 0.0 | 0.0 | 0.00 | 0.00 | 0.43 | 51 | 1014.7 |
| 20260510034519 | 9 | 341 | 0.0 | 0.0 | 0.00 | 0.00 | 0.43 | 50 | 1014.6 |
| 20260510034018 | 9 | 341 | 0.0 | 0.0 | 0.00 | 0.00 | 0.43 | 49 | 1014.5 |
| 20260510033519 | 9 | 341 | 0.0 | 0.0 | 0.00 | 0.00 | 0.43 | 49 | 1014.5 |
| 20260510033019 | 10 | 341 | 0.0 | 0.0 | 0.00 | 0.00 | 0.43 | 48 | 1014.5 |
| 20260510032518 | 10 | 341 | 0.0 | 0.0 | 0.00 | 0.00 | 0.43 | 47 | 1014.4 |
| 20260510032019 | 10 | 341 | 0.0 | 0.0 | 0.00 | 0.00 | 0.43 | 47 | 1014.4 |
| 20260510031519 | 10 | 341 | 0.0 | 0.0 | 0.00 | 0.00 | 0.43 | 47 | 1014.4 |
| 20260510031016 | 10 | 341 | 0.0 | 3.2 | 0.00 | 0.00 | 0.43 | 46 | 1014.4 |
| 20260510030516 | 10 | 341 | 0.0 | 3.2 | 0.00 | 0.00 | 0.43 | 46 | 1014.4 |
| 20260510030016 | 10 | 341 | 1.6 | 4.8 | 0.00 | 0.00 | 0.43 | 46 | 1014.4 |
| 20260510025515 | 10 | 341 | 1.6 | 4.8 | 0.00 | 0.00 | 0.43 | 45 | 1014.2 |
| 20260510025015 | 10 | 340 | 1.6 | 4.8 | 0.00 | 0.00 | 0.43 | 45 | 1014.2 |
| 20260510024516 | 11 | 338 | 0.0 | 4.8 | 0.00 | 0.00 | 0.43 | 44 | 1014.2 |
| 20260510024015 | 11 | 338 | 1.6 | 4.8 | 0.00 | 0.00 | 0.43 | 44 | 1014.1 |
| 20260510023513 | 11 | 337 | 1.6 | 4.8 | 0.00 | 0.00 | 0.43 | 44 | 1014.2 |
| 20260510023013 | 11 | 336 | 1.6 | 4.8 | 0.00 | 0.00 | 0.43 | 44 | 1014.0 |
| 20260510022514 | 11 | 336 | 0.0 | 8.0 | 0.00 | 0.00 | 0.43 | 43 | 1014.0 |
| 20260510022012 | 11 | 336 | 1.6 | 9.7 | 0.00 | 0.00 | 0.43 | 43 | 1014.0 |
| 20260510021514 | 11 | 337 | 4.8 | 9.7 | 0.00 | 0.00 | 0.43 | 43 | 1013.9 |
| 20260510021010 | 11 | 16 | 3.2 | 14.5 | 0.00 | 0.00 | 0.43 | 42 | 1013.8 |
| 20260510020518 | 11 | 336 | 4.8 | 14.5 | 0.00 | 0.00 | 0.43 | 42 | 1013.6 |
| 20260510020010 | 11 | 331 | 4.8 | 14.5 | 0.00 | 0.00 | 0.43 | 42 | 1013.6 |
| 20260510015509 | 12 | 338 | 6.4 | 17.7 | 0.00 | 0.00 | 0.43 | 41 | 1013.6 |
| 20260510015013 | 12 | 329 | 9.7 | 17.7 | 0.00 | 0.00 | 0.43 | 41 | 1013.5 |
| 20260510014509 | 12 | 313 | 6.4 | 16.1 | 0.00 | 0.00 | 0.43 | 41 | 1013.5 |
| 20260510014008 | 12 | 336 | 9.7 | 20.9 | 0.00 | 0.00 | 0.43 | 40 | 1013.4 |
| 20260510013508 | 12 | 355 | 9.7 | 20.9 | 0.00 | 0.00 | 0.43 | 40 | 1013.4 |
| 20260510013009 | 12 | 330 | 9.7 | 20.9 | 0.00 | 0.00 | 0.43 | 40 | 1013.4 |
| 20260510012507 | 12 | 320 | 8.0 | 20.9 | 0.00 | 0.00 | 0.43 | 40 | 1013.3 |
| 20260510012007 | 12 | 335 | 12.9 | 24.1 | 0.00 | 0.00 | 0.43 | 39 | 1013.2 |
| 20260510011509 | 12 | 346 | 11.3 | 24.1 | 0.00 | 0.00 | 0.43 | 40 | 1013.2 |
| 20260510011006 | 12 | 296 | 4.8 | 16.1 | 0.00 | 0.00 | 0.43 | 40 | 1013.1 |
| 20260510010505 | 12 | 339 | 8.0 | 22.5 | 0.00 | 0.00 | 0.43 | 39 | 1013.1 |
| 20260510010112 | 12 | 340 | 11.3 | 24.1 | 0.00 | 0.00 | 0.43 | 39 | 1013.1 |
| 20260510005505 | 12 | 333 | 11.3 | 25.7 | 0.00 | 0.00 | 0.43 | 39 | 1013.1 |
| 20260510005005 | 12 | 5 | 11.3 | 25.7 | 0.00 | 0.00 | 0.43 | 39 | 1013.0 |
| 20260510004504 | 12 | 285 | 12.9 | 27.4 | 0.00 | 0.00 | 0.43 | 39 | 1013.1 |
| 20260510004005 | 12 | 326 | 14.5 | 27.4 | 0.00 | 0.00 | 0.43 | 38 | 1013.0 |
| 20260510003504 | 12 | 318 | 11.3 | 22.5 | 0.00 | 0.00 | 0.43 | 39 | 1013.0 |
| 20260510003004 | 12 | 319 | 11.3 | 27.4 | 0.00 | 0.00 | 0.43 | 39 | 1013.1 |
| 20260510002503 | 12 | 298 | 12.9 | 27.4 | 0.00 | 0.00 | 0.43 | 38 | 1013.1 |
| 20260510002003 | 12 | 272 | 11.3 | 30.6 | 0.00 | 0.00 | 0.43 | 38 | 1013.0 |
| 20260510001502 | 12 | 327 | 17.7 | 30.6 | 0.00 | 0.00 | 0.43 | 38 | 1013.0 |
| 20260510001002 | 12 | 323 | 14.5 | 22.5 | 0.00 | 0.00 | 0.43 | 39 | 1013.0 |
| 20260510000502 | 13 | 315 | 11.3 | 25.7 | 0.00 | 0.00 | 0.43 | 39 | 1013.0 |
| 20260510000001 | 13 | 293 | 14.5 | 25.7 | 0.00 | 0.00 | 0.43 | 38 | 1012.9 |
| 20260509235603 | 13 | 286 | 12.9 | 30.6 | 0.00 | 0.00 | 0.43 | 38 | 1012.7 |
| 20260509235100 | 13 | 329 | 16.1 | 30.6 | 0.00 | 0.00 | 0.43 | 37 | 1012.7 |
| 20260509234602 | 13 | 331 | 16.1 | 27.4 | 0.00 | 0.00 | 0.43 | 38 | 1012.7 |
| 20260509234101 | 13 | 340 | 16.1 | 27.4 | 0.00 | 0.00 | 0.43 | 38 | 1012.8 |
| 20260509233558 | 13 | 325 | 14.5 | 25.7 | 0.00 | 0.00 | 0.43 | 39 | 1012.6 |
| 20260509233059 | 13 | 345 | 12.9 | 22.5 | 0.00 | 0.00 | 0.43 | 38 | 1012.6 |
| 20260509232600 | 13 | 324 | 11.3 | 24.1 | 0.00 | 0.00 | 0.43 | 40 | 1012.6 |
| 20260509232059 | 12 | 323 | 11.3 | 25.7 | 0.00 | 0.00 | 0.43 | 39 | 1012.7 |
| 20260509231558 | 12 | 322 | 12.9 | 25.7 | 0.00 | 0.00 | 0.43 | 39 | 1012.6 |
| 20260509231058 | 12 | 336 | 9.7 | 29.0 | 0.00 | 0.00 | 0.43 | 39 | 1012.6 |
| 20260509230557 | 13 | 310 | 11.3 | 33.8 | 0.00 | 0.00 | 0.43 | 38 | 1012.6 |
| 20260509230057 | 13 | 326 | 19.3 | 33.8 | 0.00 | 0.00 | 0.43 | 38 | 1012.5 |
| 20260509225555 | 13 | 306 | 12.9 | 30.6 | 0.00 | 0.00 | 0.43 | 39 | 1012.6 |
| 20260509225055 | 13 | 10 | 17.7 | 33.8 | 0.00 | 0.00 | 0.43 | 37 | 1012.4 |
| 20260509224555 | 13 | 336 | 20.9 | 33.8 | 0.00 | 0.00 | 0.43 | 36 | 1012.5 |
| 20260509224059 | 13 | 215 | 6.4 | 24.1 | 0.00 | 0.00 | 0.43 | 37 | 1012.4 |
| 20260509223555 | 13 | 360 | 12.9 | 32.2 | 0.00 | 0.00 | 0.43 | 37 | 1012.3 |
| 20260509223101 | 13 | 336 | 16.1 | 32.2 | 0.00 | 0.00 | 0.43 | 38 | 1012.3 |
| 20260509222555 | 13 | 286 | 14.5 | 29.0 | 0.00 | 0.00 | 0.43 | 37 | 1012.3 |
| 20260509222054 | 13 | 296 | 12.9 | 30.6 | 0.00 | 0.00 | 0.43 | 38 | 1012.4 |
| 20260509221554 | 13 | 315 | 14.5 | 38.6 | 0.00 | 0.00 | 0.43 | 38 | 1012.4 |
| 20260509221054 | 13 | 275 | 16.1 | 38.6 | 0.00 | 0.00 | 0.43 | 40 | 1012.4 |
| 20260509220554 | 13 | 321 | 14.5 | 33.8 | 0.00 | 0.00 | 0.43 | 39 | 1012.3 |
| 20260509220053 | 13 | 333 | 19.3 | 33.8 | 0.00 | 0.00 | 0.43 | 39 | 1012.4 |
| 20260509215553 | 13 | 292 | 16.1 | 37.0 | 0.00 | 0.00 | 0.43 | 38 | 1012.4 |
| 20260509215053 | 13 | 345 | 19.3 | 37.0 | 0.00 | 0.00 | 0.43 | 38 | 1012.3 |
| 20260509214552 | 13 | 317 | 16.1 | 33.8 | 0.00 | 0.00 | 0.43 | 39 | 1012.2 |
| 20260509214052 | 14 | 355 | 19.3 | 35.4 | 0.00 | 0.00 | 0.43 | 39 | 1012.2 |
| 20260509213552 | 13 | 336 | 19.3 | 35.4 | 0.00 | 0.00 | 0.43 | 38 | 1012.3 |
| 20260509213052 | 13 | 317 | 14.5 | 27.4 | 0.00 | 0.00 | 0.43 | 39 | 1012.3 |
| 20260509212552 | 13 | 298 | 12.9 | 32.2 | 0.00 | 0.00 | 0.43 | 40 | 1012.3 |
| 20260509212051 | 13 | 317 | 19.3 | 32.2 | 0.00 | 0.00 | 0.43 | 38 | 1012.3 |
| 20260509211551 | 13 | 286 | 6.4 | 24.1 | 0.00 | 0.00 | 0.43 | 39 | 1012.2 |
| 20260509211051 | 13 | 273 | 12.9 | 29.0 | 0.00 | 0.00 | 0.43 | 39 | 1012.2 |
| 20260509210552 | 13 | 302 | 12.9 | 30.6 | 0.00 | 0.00 | 0.43 | 39 | 1012.3 |
| 20260509210057 | 13 | 331 | 19.3 | 30.6 | 0.00 | 0.00 | 0.43 | 40 | 1012.3 |
| 20260509205653 | 13 | 317 | 14.5 | 27.4 | 0.00 | 0.00 | 0.43 | 39 | 1012.2 |
| 20260509205054 | 13 | 360 | 17.7 | 29.0 | 0.00 | 0.00 | 0.43 | 39 | 1012.2 |
| 20260509204554 | 13 | 331 | 12.9 | 29.0 | 0.00 | 0.00 | 0.43 | 38 | 1012.2 |
| 20260509204050 | 13 | 318 | 16.1 | 30.6 | 0.00 | 0.00 | 0.43 | 39 | 1012.3 |
| 20260509203549 | 13 | 321 | 19.3 | 30.6 | 0.00 | 0.00 | 0.43 | 38 | 1012.3 |
| 20260509203049 | 13 | 334 | 12.9 | 35.4 | 0.00 | 0.00 | 0.43 | 40 | 1012.2 |
| 20260509202549 | 13 | 307 | 17.7 | 35.4 | 0.00 | 0.00 | 0.43 | 39 | 1012.2 |
| 20260509202048 | 14 | 323 | 16.1 | 35.4 | 0.00 | 0.00 | 0.43 | 39 | 1012.2 |
| 20260509201549 | 13 | 351 | 16.1 | 37.0 | 0.00 | 0.00 | 0.43 | 39 | 1012.2 |
| 20260509201047 | 13 | 242 | 17.7 | 37.0 | 0.00 | 0.00 | 0.43 | 41 | 1012.2 |
| 20260509200546 | 13 | 355 | 16.1 | 35.4 | 0.00 | 0.00 | 0.43 | 39 | 1012.1 |
| 20260509195545 | 13 | 311 | 14.5 | 40.2 | 0.00 | 0.00 | 0.43 | 41 | 1012.1 |
| 20260509195043 | 13 | 17 | 17.7 | 40.2 | 0.00 | 0.00 | 0.43 | 40 | 1012.1 |
| 20260509194545 | 13 | 355 | 16.1 | 29.0 | 0.00 | 0.00 | 0.43 | 42 | 1012.0 |
| 20260509194043 | 12 | 309 | 9.7 | 33.8 | 0.00 | 0.00 | 0.43 | 41 | 1012.0 |
| 20260509193542 | 12 | 275 | 16.1 | 33.8 | 0.00 | 0.00 | 0.43 | 42 | 1012.1 |
| 20260509193043 | 12 | 302 | 11.3 | 30.6 | 0.00 | 0.00 | 0.43 | 41 | 1012.0 |
| 20260509192541 | 13 | 306 | 16.1 | 30.6 | 0.00 | 0.00 | 0.43 | 42 | 1012.0 |
| 20260509192042 | 12 | 334 | 12.9 | 30.6 | 0.00 | 0.00 | 0.43 | 43 | 1012.0 |
| 20260509191541 | 12 | 346 | 16.1 | 29.0 | 0.00 | 0.00 | 0.43 | 44 | 1012.0 |
| 20260509191041 | 13 | 345 | 11.3 | 29.0 | 0.00 | 0.00 | 0.43 | 45 | 1012.0 |
| 20260509190540 | 13 | 192 | 11.3 | 30.6 | 0.00 | 0.00 | 0.43 | 44 | 1012.0 |
| 20260509190040 | 13 | 261 | 16.1 | 30.6 | 0.00 | 0.00 | 0.43 | 45 | 1012.0 |
| 20260509185539 | 12 | 322 | 9.7 | 32.2 | 0.00 | 0.00 | 0.43 | 46 | 1011.9 |
| 20260509185039 | 12 | 329 | 20.9 | 32.2 | 0.00 | 0.00 | 0.43 | 45 | 1012.0 |
| 20260509184554 | 12 | 319 | 12.9 | 41.8 | 0.00 | 0.00 | 0.43 | 44 | 1012.0 |
| 20260509184037 | 12 | 13 | 20.9 | 41.8 | 0.00 | 0.00 | 0.43 | 47 | 1012.0 |
| 20260509183536 | 12 | 340 | 11.3 | 32.2 | 0.00 | 0.00 | 0.43 | 48 | 1012.0 |
| 20260509183036 | 12 | 282 | 12.9 | 29.0 | 0.00 | 0.00 | 0.43 | 48 | 1012.1 |
| 20260509182536 | 12 | 300 | 11.3 | 29.0 | 0.00 | 0.00 | 0.43 | 49 | 1012.0 |
| 20260509182035 | 12 | 339 | 14.5 | 29.0 | 0.00 | 0.00 | 0.43 | 47 | 1011.9 |
| 20260509181533 | 12 | 294 | 16.1 | 32.2 | 0.00 | 0.00 | 0.43 | 49 | 1011.9 |
| 20260509181034 | 11 | 319 | 16.1 | 32.2 | 0.00 | 0.00 | 0.43 | 49 | 1011.9 |
| 20260509180533 | 11 | 344 | 17.7 | 30.6 | 0.00 | 0.00 | 0.43 | 49 | 1011.9 |
| 20260509180032 | 11 | 295 | 14.5 | 29.0 | 0.00 | 0.00 | 0.43 | 50 | 1011.9 |
| 20260509175531 | 11 | 313 | 14.5 | 29.0 | 0.00 | 0.00 | 0.43 | 50 | 1012.0 |
| 20260509175033 | 11 | 338 | 12.9 | 32.2 | 0.00 | 0.00 | 0.43 | 49 | 1011.9 |
| 20260509174535 | 11 | 302 | 19.3 | 35.4 | 0.00 | 0.00 | 0.43 | 49 | 1011.9 |